EW4939 Weather Reports


Display with metric or nautical units.
time (UTC)temp
F
wind
direction
speed
MPH
gust
MPH
rain 1hr
in
rain 24hr
in
rain mn
in
humidity
%
barometer
mb
20260902033844 82 177 0.0 1.0 0.00 0.00 0.00 74 1017.3
20260902033339 82 177 1.0 1.0 0.00 0.00 0.00 75 1017.3
20260902032838 82 177 0.0 1.0 0.00 0.00 0.00 74 1017.3
20260902032338 82 177 0.0 1.0 0.00 0.00 0.00 75 1017.3
20260902031833 82 177 1.0 2.0 0.00 0.00 0.00 75 1017.2
20260902031330 82 177 1.0 1.0 0.00 0.00 0.00 75 1017.3
20260902030825 82 170 0.0 1.0 0.00 0.00 0.00 76 1017.4
20260902030325 82 170 1.0 1.0 0.00 0.00 0.00 74 1017.3
20260902025824 82 170 1.0 1.0 0.00 0.00 0.00 75 1017.1
20260902025321 82 170 1.0 1.0 0.00 0.00 0.00 76 1017.4
20260902024820 82 170 1.0 1.0 0.00 0.00 0.00 76 1017.2
20260902024316 83 170 1.0 1.0 0.00 0.00 0.00 73 1017.3
20260902023811 83 170 1.0 1.0 0.00 0.00 0.00 73 1017.4
20260902023307 83 170 1.0 1.0 0.00 0.00 0.00 73 1017.2
20260902022805 83 170 0.0 0.0 0.00 0.00 0.00 73 1017.2
20260902022301 84 169 0.0 0.0 0.00 0.00 0.00 72 1017.3
20260902021757 84 159 1.0 1.0 0.00 0.00 0.00 72 1017.4
20260902021256 84 168 0.0 1.0 0.00 0.00 0.00 71 1017.4
20260902020753 84 168 0.0 1.0 0.00 0.00 0.00 71 1017.1
20260902020249 84 172 1.0 2.0 0.00 0.00 0.00 71 1017.3
20260902015743 85 156 2.0 2.0 0.00 0.00 0.00 70 1017.2
20260902015240 85 184 2.0 2.0 0.00 0.00 0.00 69 1017.2
20260902014735 85 179 1.0 1.0 0.00 0.00 0.00 70 1017.2
20260902014232 85 177 1.0 1.0 0.00 0.00 0.00 70 1017.0
20260902013730 85 181 1.0 2.0 0.00 0.00 0.00 70 1017.1
20260902013226 85 181 1.0 2.0 0.00 0.00 0.00 70 1017.0
20260902012721 84 180 1.0 1.0 0.00 0.00 0.00 71 1017.2
20260902012217 84 176 1.0 2.0 0.00 0.00 0.00 72 1017.4
20260902011713 84 160 1.0 1.0 0.00 0.00 0.00 72 1017.0
20260902011212 83 161 1.0 1.0 0.00 0.00 0.00 74 1017.2
20260902010711 82 169 1.0 1.0 0.00 0.00 0.00 74 1017.0
20260902010208 82 190 0.0 1.0 0.00 0.00 0.00 75 1016.9
20260902005705 82 190 0.0 1.0 0.00 0.00 0.00 76 1016.9
20260902005201 82 191 0.0 1.0 0.00 0.00 0.00 76 1017.0
20260902004701 82 191 0.0 0.0 0.00 0.00 0.00 75 1016.9
20260902004156 82 191 0.0 1.0 0.00 0.00 0.00 76 1016.8
20260902003652 83 191 0.0 0.0 0.00 0.00 0.00 76 1016.9
20260902003147 83 191 0.0 0.0 0.00 0.00 0.00 75 1016.9
20260902002643 83 191 0.0 0.0 0.00 0.00 0.00 74 1016.8
20260902002142 84 191 0.0 1.0 0.00 0.00 0.00 73 1016.8
20260902001638 84 191 0.0 0.0 0.00 0.00 0.00 73 1017.0
20260902001132 84 191 0.0 0.0 0.00 0.00 0.00 72 1016.9
20260902000628 85 191 0.0 0.0 0.00 0.00 0.00 72 1017.0
20260902000128 85 191 0.0 0.0 0.00 0.00 0.00 72 1017.0
20260901235627 85 191 0.0 0.0 0.00 0.00 0.00 72 1017.1
20260901235123 86 191 0.0 1.0 0.00 0.00 0.00 70 1017.1
20260901234622 87 191 0.0 0.0 0.00 0.00 0.00 69 1017.1
20260901234117 87 191 0.0 1.0 0.00 0.00 0.00 66 1017.1
20260901233612 89 191 0.0 0.0 0.00 0.00 0.00 67 1017.0
20260901233108 90 191 0.0 1.0 0.00 0.00 0.00 59 1017.1
20260901232603 90 196 0.0 1.0 0.00 0.00 0.00 60 1017.1
20260901232103 91 190 0.0 0.0 0.00 0.00 0.00 57 1017.1
20260901231600 91 292 1.0 3.0 0.00 0.00 0.00 55 1017.0
20260901231056 91 201 1.0 2.0 0.00 0.00 0.00 55 1017.3
20260901230552 92 177 0.0 0.0 0.00 0.00 0.00 54 1017.1
20260901230051 92 187 2.0 4.0 0.00 0.00 0.00 54 1017.1
20260901225546 92 197 0.0 1.0 0.00 0.00 0.00 54 1017.2
20260901225046 93 190 1.0 1.0 0.00 0.00 0.00 54 1017.1
20260901224542 93 225 1.0 1.0 0.00 0.00 0.00 51 1017.1
20260901224038 93 151 1.0 1.0 0.00 0.00 0.00 51 1017.2
20260901223533 94 208 0.0 1.0 0.00 0.00 0.00 52 1017.2
20260901223029 94 196 0.0 2.0 0.00 0.00 0.00 52 1017.0
20260901222525 94 296 1.0 2.0 0.00 0.00 0.00 51 1017.1
20260901222020 94 194 1.0 2.0 0.00 0.00 0.00 51 1017.1
20260901221516 95 288 1.0 4.0 0.00 0.00 0.00 50 1017.0
20260901221012 95 277 0.0 3.0 0.00 0.00 0.00 51 1016.9
20260901220511 95 207 2.0 2.0 0.00 0.00 0.00 51 1016.9
20260901220010 95 192 1.0 2.0 0.00 0.00 0.00 51 1016.9
20260901215509 94 262 0.0 1.0 0.00 0.00 0.00 52 1016.9
20260901215008 95 196 1.0 4.0 0.00 0.00 0.00 52 1016.8
20260901214508 95 185 1.0 2.0 0.00 0.00 0.00 51 1016.9
20260901214003 95 227 2.0 3.0 0.00 0.00 0.00 49 1016.9
20260901213502 95 315 1.0 2.0 0.00 0.00 0.00 49 1016.8
20260901213001 95 322 1.0 2.0 0.00 0.00 0.00 51 1017.1
20260901212457 95 167 3.0 3.0 0.00 0.00 0.00 50 1017.0
20260901211953 95 189 1.0 3.0 0.00 0.00 0.00 52 1017.0
20260901211448 95 161 3.0 4.0 0.00 0.00 0.00 51 1016.6
20260901210944 96 200 1.0 4.0 0.00 0.00 0.00 49 1017.0
20260901210440 97 204 1.0 2.0 0.00 0.00 0.00 49 1016.8
20260901205937 96 221 1.0 2.0 0.00 0.00 0.00 50 1017.0
20260901205436 96 165 1.0 3.0 0.00 0.00 0.00 49 1017.2
20260901204931 96 200 1.0 3.0 0.00 0.00 0.00 50 1017.0
20260901204428 97 244 2.0 3.0 0.00 0.00 0.00 48 1017.0
20260901203927 96 204 2.0 2.0 0.00 0.00 0.00 50 1017.0
20260901203422 96 181 0.0 1.0 0.00 0.00 0.00 49 1017.0
20260901202917 95 199 0.0 4.0 0.00 0.00 0.00 49 1017.0
20260901202412 95 189 2.0 2.0 0.00 0.00 0.00 50 1016.9
20260901201908 96 206 1.0 6.0 0.00 0.00 0.00 50 1017.1
20260901201408 96 286 2.0 4.0 0.00 0.00 0.00 51 1017.2
20260901200908 96 169 3.0 3.0 0.00 0.00 0.00 52 1017.0
20260901200403 97 208 2.0 2.0 0.00 0.00 0.00 49 1017.0
20260901195902 96 197 1.0 2.0 0.00 0.00 0.00 49 1017.0
20260901195400 96 240 2.0 2.0 0.00 0.00 0.00 49 1017.1
20260901194856 96 188 2.0 7.0 0.00 0.00 0.00 52 1017.1
20260901194350 96 48 0.0 4.0 0.00 0.00 0.00 52 1017.0
20260901193847 96 209 2.0 3.0 0.00 0.00 0.00 50 1017.3
20260901193346 96 201 1.0 3.0 0.00 0.00 0.00 51 1017.3
20260901192845 95 179 4.0 6.0 0.00 0.00 0.00 51 1017.4
20260901192341 96 277 0.0 3.0 0.00 0.00 0.00 52 1017.3
20260901191837 95 188 1.0 2.0 0.00 0.00 0.00 51 1017.4
20260901191332 94 209 3.0 7.0 0.00 0.00 0.00 51 1017.5
20260901190829 94 245 4.0 6.0 0.00 0.00 0.00 53 1017.4
20260901190328 95 175 3.0 6.0 0.00 0.00 0.00 53 1017.7
20260901185827 94 111 1.0 2.0 0.00 0.00 0.00 52 1017.7
20260901185326 94 190 3.0 3.0 0.00 0.00 0.00 51 1017.7
20260901184821 94 295 2.0 2.0 0.00 0.00 0.00 53 1017.8
20260901184318 94 200 2.0 3.0 0.00 0.00 0.00 53 1017.6
20260901183813 93 195 1.0 4.0 0.00 0.00 0.00 55 1017.7
20260901183312 93 105 0.0 2.0 0.00 0.00 0.00 56 1018.0
20260901182808 93 178 1.0 2.0 0.00 0.00 0.00 56 1017.9
20260901182308 93 196 2.0 3.0 0.00 0.00 0.00 56 1017.8
20260901181802 93 269 3.0 3.0 0.00 0.00 0.00 56 1017.8
20260901181257 93 102 0.0 2.0 0.00 0.00 0.00 56 1018.0
20260901180757 92 189 1.0 2.0 0.00 0.00 0.00 57 1018.0
20260901180255 92 261 1.0 3.0 0.00 0.00 0.00 59 1017.9
20260901175755 93 287 1.0 4.0 0.00 0.00 0.00 58 1018.1
20260901175250 92 303 2.0 2.0 0.00 0.00 0.00 58 1018.1
20260901174744 91 228 0.0 1.0 0.00 0.00 0.00 59 1018.1
20260901174241 92 186 2.0 2.0 0.00 0.00 0.00 59 1018.0
20260901173736 92 29 0.0 3.0 0.00 0.00 0.00 60 1018.2
20260901173231 91 298 2.0 2.0 0.00 0.00 0.00 60 1018.2
20260901172728 91 267 2.0 3.0 0.00 0.00 0.00 58 1018.3
20260901172226 91 174 1.0 3.0 0.00 0.00 0.00 60 1018.3
20260901171725 91 194 2.0 3.0 0.00 0.00 0.00 61 1018.4
20260901171224 91 257 2.0 6.0 0.00 0.00 0.00 60 1018.2
20260901170723 90 180 2.0 3.0 0.00 0.00 0.00 61 1018.4
20260901170218 90 277 0.0 6.0 0.00 0.00 0.00 61 1018.4
20260901165717 91 23 0.0 4.0 0.00 0.00 0.00 62 1018.4
20260901165212 91 178 2.0 4.0 0.00 0.00 0.00 62 1018.5
20260901164709 90 208 0.0 1.0 0.00 0.00 0.00 67 1018.5
20260901164209 89 287 1.0 4.0 0.00 0.00 0.00 66 1018.7
20260901163704 90 179 4.0 6.0 0.00 0.00 0.00 64 1018.7
20260901163203 89 215 0.0 1.0 0.00 0.00 0.00 66 1018.6
20260901162658 88 17 1.0 2.0 0.00 0.00 0.00 68 1018.6
20260901162158 88 245 2.0 3.0 0.00 0.00 0.00 67 1018.5
20260901161657 87 167 1.0 4.0 0.00 0.00 0.00 69 1018.5
20260901161156 88 317 3.0 6.0 0.00 0.00 0.00 68 1018.8
20260901160653 88 312 1.0 2.0 0.00 0.00 0.00 69 1018.7
20260901160148 87 193 1.0 7.0 0.00 0.00 0.00 69 1018.6
20260901155647 87 194 2.0 2.0 0.00 0.00 0.00 69 1018.8
20260901155143 87 167 4.0 6.0 0.00 0.00 0.00 69 1018.7
20260901154637 87 266 0.0 3.0 0.00 0.00 0.00 69 1018.8
20260901154132 87 319 1.0 4.0 0.00 0.00 0.00 69 1019.0
20260901153628 87 185 2.0 4.0 0.00 0.00 0.00 69 1019.1
20260901153126 86 301 0.0 3.0 0.00 0.00 0.00 69 1019.2
20260901152622 87 254 0.0 2.0 0.00 0.00 0.00 70 1019.1
20260901152120 87 203 2.0 2.0 0.00 0.00 0.00 70 1019.0
20260901151617 86 194 2.0 6.0 0.00 0.00 0.00 69 1019.0
20260901151116 86 340 2.0 2.0 0.00 0.00 0.00 71 1018.9
20260901150615 86 185 0.0 1.0 0.00 0.00 0.00 72 1018.9
20260901150113 86 307 1.0 2.0 0.00 0.00 0.00 72 1019.0
20260901145612 85 264 2.0 3.0 0.00 0.00 0.00 72 1018.8
20260901145111 84 332 0.0 2.0 0.00 0.00 0.00 73 1018.7
20260901144607 84 178 2.0 6.0 0.00 0.00 0.00 73 1018.9
20260901144102 84 206 0.0 2.0 0.00 0.00 0.00 74 1018.9
20260901143557 84 175 3.0 4.0 0.00 0.00 0.00 74 1018.8
20260901143054 83 202 2.0 3.0 0.00 0.00 0.00 75 1018.9
20260901142549 83 14 4.0 7.0 0.00 0.00 0.00 75 1019.0
20260901142049 83 203 3.0 3.0 0.00 0.00 0.00 75 1019.0
20260901141544 83 176 2.0 4.0 0.00 0.00 0.00 76 1019.0
20260901141038 82 306 1.0 2.0 0.00 0.00 0.00 77 1019.1
20260901140537 82 193 1.0 6.0 0.00 0.00 0.00 76 1019.3
20260901140032 82 197 1.0 4.0 0.00 0.00 0.00 76 1019.1
20260901135531 82 191 1.0 1.0 0.00 0.00 0.00 77 1019.1
20260901135027 82 283 1.0 1.0 0.00 0.00 0.00 77 1018.9
20260901134523 82 301 0.0 3.0 0.00 0.00 0.00 77 1019.2
20260901134022 82 256 1.0 2.0 0.00 0.00 0.00 76 1019.2
20260901133521 82 226 1.0 2.0 0.00 0.00 0.00 77 1019.1
20260901133020 81 295 1.0 3.0 0.00 0.00 0.00 77 1018.9
20260901132515 81 250 1.0 3.0 0.00 0.00 0.00 77 1019.0
20260901132014 81 172 0.0 1.0 0.00 0.00 0.00 78 1018.9
20260901131510 80 206 0.0 2.0 0.00 0.00 0.00 78 1018.9
20260901131005 80 184 0.0 1.0 0.00 0.00 0.00 80 1019.0
20260901130505 80 143 0.0 2.0 0.00 0.00 0.00 80 1019.0
20260901130003 80 303 0.0 1.0 0.00 0.00 0.00 81 1019.0
20260901125503 79 159 1.0 2.0 0.00 0.00 0.00 81 1019.0
20260901125002 79 197 0.0 2.0 0.00 0.00 0.00 82 1019.0
20260901124457 78 266 1.0 2.0 0.00 0.00 0.00 82 1019.2
20260901123952 78 162 1.0 1.0 0.00 0.00 0.00 84 1019.1
20260901123447 77 140 0.0 2.0 0.00 0.00 0.00 85 1019.2
20260901122946 77 176 1.0 2.0 0.00 0.00 0.00 85 1019.3
20260901122444 77 156 1.0 2.0 0.00 0.00 0.00 86 1019.2
20260901121945 76 178 1.0 1.0 0.00 0.00 0.00 86 1019.2
20260901121440 76 155 1.0 1.0 0.00 0.00 0.00 87 1019.1
20260901120935 76 155 1.0 2.0 0.00 0.00 0.00 87 1019.2
20260901120434 76 155 0.0 1.0 0.00 0.00 0.00 87 1019.0
20260901115930 75 187 1.0 1.0 0.00 0.00 0.00 88 1019.0
20260901115430 75 187 1.0 2.0 0.00 0.00 0.00 88 1018.9
20260901114928 75 168 1.0 1.0 0.00 0.00 0.00 88 1018.6
20260901114423 75 178 1.0 2.0 0.00 0.00 0.00 88 1018.7
20260901113921 75 154 1.0 1.0 0.00 0.00 0.00 88 1018.5
20260901113420 75 178 0.0 1.0 0.00 0.00 0.00 89 1018.6
20260901112916 75 178 0.0 1.0 0.00 0.00 0.00 88 1018.4
20260901112412 75 186 0.0 1.0 0.00 0.00 0.00 89 1018.5
20260901111911 74 185 0.0 1.0 0.00 0.00 0.00 90 1018.3
20260901111410 74 186 0.0 1.0 0.00 0.00 0.00 90 1018.4
20260901110909 74 186 1.0 1.0 0.00 0.00 0.00 91 1018.2
20260901110405 74 186 1.0 1.0 0.00 0.00 0.00 90 1018.1
20260901105900 75 186 0.0 1.0 0.00 0.00 0.00 89 1018.2
20260901105356 75 186 0.0 0.0 0.00 0.00 0.00 88 1018.0
20260901104852 75 180 1.0 1.0 0.00 0.00 0.00 89 1018.1
20260901104347 75 180 0.0 1.0 0.00 0.00 0.00 89 1018.2
20260901103843 75 180 1.0 1.0 0.00 0.00 0.00 89 1018.2
20260901103342 75 180 0.0 0.0 0.00 0.00 0.00 88 1018.0
20260901102837 75 180 0.0 1.0 0.00 0.00 0.00 88 1017.8
20260901102337 75 180 1.0 1.0 0.00 0.00 0.00 88 1018.0
20260901101833 75 161 0.0 1.0 0.00 0.00 0.00 89 1018.0
20260901101333 75 148 0.0 2.0 0.00 0.00 0.00 89 1017.7
20260901100832 75 148 1.0 1.0 0.00 0.00 0.00 90 1017.9
20260901100327 74 148 0.0 1.0 0.00 0.00 0.00 91 1017.9
20260901095826 74 148 1.0 1.0 0.00 0.00 0.00 92 1017.7
20260901095324 74 147 0.0 1.0 0.00 0.00 0.00 92 1017.8
20260901094818 73 147 0.0 0.0 0.00 0.00 0.00 94 1017.7
20260901094313 73 147 0.0 0.0 0.00 0.00 0.00 94 1017.8
20260901093808 73 147 0.0 0.0 0.00 0.00 0.00 94 1017.9
20260901093307 73 147 0.0 0.0 0.00 0.00 0.00 94 1017.8
20260901092803 73 147 0.0 0.0 0.00 0.00 0.00 95 1017.9
20260901092259 73 147 0.0 0.0 0.00 0.00 0.00 94 1017.8
20260901091754 73 147 0.0 0.0 0.00 0.00 0.00 94 1017.6
20260901091249 73 147 0.0 0.0 0.00 0.00 0.00 93 1017.6
20260901090744 73 147 0.0 1.0 0.00 0.00 0.00 93 1017.7
20260901090239 73 147 0.0 1.0 0.00 0.00 0.00 95 1017.6
20260901085735 73 147 0.0 0.0 0.00 0.00 0.00 95 1017.6
20260901085230 73 147 0.0 0.0 0.00 0.00 0.00 95 1017.4
20260901084727 73 147 0.0 0.0 0.00 0.00 0.00 95 1017.5
20260901084223 73 147 0.0 0.0 0.00 0.00 0.00 94 1017.4
20260901083723 73 147 0.0 0.0 0.00 0.00 0.00 94 1017.4
20260901083222 73 147 0.0 0.0 0.00 0.00 0.00 94 1017.4
20260901082721 73 147 0.0 0.0 0.00 0.00 0.00 94 1017.3
20260901082216 73 147 0.0 0.0 0.00 0.00 0.00 94 1017.3
20260901081712 73 147 0.0 0.0 0.00 0.00 0.00 93 1017.3
20260901081211 74 147 0.0 0.0 0.00 0.00 0.00 93 1017.3
20260901080706 74 147 0.0 0.0 0.00 0.00 0.00 93 1017.4
20260901080205 74 147 0.0 0.0 0.00 0.00 0.00 92 1017.5
20260901075700 74 147 0.0 0.0 0.00 0.00 0.00 91 1017.6
20260901075200 75 147 0.0 0.0 0.00 0.00 0.00 91 1017.3
20260901074700 75 147 0.0 0.0 0.00 0.00 0.00 91 1017.4
20260901074155 75 147 0.0 0.0 0.00 0.00 0.00 90 1017.3
20260901073651 75 147 0.0 0.0 0.00 0.00 0.00 90 1017.3
20260901073147 76 147 0.0 0.0 0.00 0.00 0.00 89 1017.2
20260901072642 76 147 0.0 0.0 0.00 0.00 0.00 88 1017.2
20260901072136 76 147 0.0 0.0 0.00 0.00 0.00 88 1017.3
20260901071631 76 147 0.0 0.0 0.00 0.00 0.00 88 1017.3
20260901071130 77 147 0.0 0.0 0.00 0.00 0.00 87 1017.3
20260901070625 77 147 0.0 0.0 0.00 0.00 0.00 86 1017.1
20260901070121 78 147 0.0 0.0 0.00 0.00 0.00 85 1017.2
20260901065615 79 147 0.0 0.0 0.00 0.00 0.00 83 1017.0
20260901065115 80 178 1.0 1.0 0.00 0.00 0.00 80 1016.9
20260901064612 79 188 1.0 1.0 0.00 0.00 0.00 81 1017.0
20260901064108 79 188 0.0 1.0 0.00 0.00 0.00 80 1017.0
20260901063605 79 159 1.0 2.0 0.00 0.00 0.00 81 1016.7
20260901063100 79 160 1.0 2.0 0.00 0.00 0.00 82 1016.6
20260901062556 79 183 2.0 2.0 0.00 0.00 0.00 82 1016.6
20260901062052 79 179 1.0 2.0 0.00 0.00 0.00 82 1016.8
20260901061548 79 186 1.0 2.0 0.00 0.00 0.00 83 1016.7
20260901061043 78 162 1.0 2.0 0.00 0.00 0.00 84 1016.8
20260901060542 79 180 1.0 2.0 0.00 0.00 0.00 84 1016.8
20260901060037 78 174 1.0 2.0 0.00 0.00 0.00 84 1017.0
20260901055533 79 163 1.0 2.0 0.00 0.00 0.00 84 1017.1
20260901055030 79 161 1.0 2.0 0.00 0.00 0.00 84 1017.1
20260901054527 79 169 1.0 2.0 0.00 0.00 0.00 83 1017.2
20260901054022 79 155 1.0 2.0 0.00 0.00 0.00 84 1017.2
20260901053518 79 166 1.0 2.0 0.00 0.00 0.00 84 1017.3
20260901053014 79 167 1.0 1.0 0.00 0.00 0.00 83 1017.4
20260901052514 79 162 1.0 2.0 0.00 0.00 0.00 83 1017.3
20260901052014 79 177 1.0 2.0 0.00 0.00 0.00 83 1017.5
20260901051509 79 160 1.0 2.0 0.00 0.00 0.00 82 1017.4
20260901051008 80 183 2.0 2.0 0.00 0.00 0.00 82 1017.5
20260901050503 80 192 2.0 2.0 0.00 0.00 0.00 82 1017.5
20260901045958 80 166 1.0 2.0 0.00 0.00 0.00 82 1017.5
20260901045454 80 186 2.0 3.0 0.00 0.00 0.00 82 1017.4
20260901044954 80 169 1.0 2.0 0.00 0.00 0.00 82 1017.6
20260901044449 80 166 1.0 2.0 0.00 0.00 0.00 81 1017.7
20260901043945 80 173 1.0 2.0 0.00 0.00 0.00 81 1017.8
20260901043442 80 176 1.0 1.0 0.00 0.00 0.00 81 1017.8
20260901042941 80 175 1.0 2.0 0.00 0.00 0.00 81 1017.8
20260901042441 80 159 2.0 2.0 0.00 0.00 0.00 81 1017.8
20260901041936 80 179 1.0 2.0 0.00 0.00 0.00 81 1017.8
20260901041432 80 156 1.0 1.0 0.00 0.00 0.00 80 1017.8
20260901040931 80 183 1.0 1.0 0.00 0.00 0.00 80 1018.0
20260901040426 81 169 1.0 1.0 0.00 0.00 0.00 80 1017.9
20260901035925 81 170 1.0 1.0 0.00 0.00 0.00 80 1017.9
20260901035424 81 176 1.0 1.0 0.00 0.00 0.00 80 1017.8
20260901034922 81 166 1.0 1.0 0.00 0.00 0.00 79 1018.1
20260901034418 81 170 1.0 1.0 0.00 0.00 0.00 80 1018.1